Regional Weather Roundup
Issued by NWS Wakefield, VA

Home | Current Version | Previous Version | Graphics & Text | Print | Product List | Glossary On
Versions: 1 2 3 4 5 6 7 8 9 10 11 12 13 14 15 16 17 18 19 20 21 22 23 24 25 26 27 28 29 30 31 32 33 34 35 36 37 38 39 40 41 42 43 44 45 46 47 48 49 50
000
ASUS41 KAKQ 182315
RWRAKQ

REGIONAL WEATHER ROUNDUP
NATIONAL WEATHER SERVICE WAKEFIELD VA
700 PM EDT WED APR 18 2018

Note: "fair" indicates few or no clouds below 12,000 feet with no
significant weather and/or obstructions to visibility. * = Denotes
station may not report precipitation (e.g., rain,snow,etc.),
thunder or fog.

VAZ042-051-052>054-056-190000-
NORTHERN VIRGINIA

CITY           SKY/WX    TMP DP  RH WIND       PRES   REMARKS
WASH NATIONAL  FAIR      61  39  44 SE3       29.76F
DULLES         FAIR      62  39  42 S7        29.75F
FORT BELVOIR   FAIR      62  37  38 CALM      29.75F
QUANTICO       FAIR      61  45  55 SE10      29.75F
FREDERICKSBRG* FAIR      66  42  41 E7        29.72F
STAFFORD*      FAIR      65  41  42 E13       29.76F
WARRENTON      FAIR      65  35  33 CALM      29.73F
CULPEPER*      FAIR      65  38  35 NE5       29.74F
MANASSAS*      FAIR      63  39  41 CALM      29.75F
LEESBURG*      FAIR      63  39  42 CALM      29.76F
WINCHESTER     FAIR      59  37  44 E5        29.75F
FRONT ROYAL*   FAIR      63  41  45 NE3       29.71F
LURAY*         FAIR      64  41  42 NE5       29.70F
$$

VAZ048-049-060>072-079>083-190000-
CENTRAL AND SOUTH CENTRAL VIRGINIA

CITY           SKY/WX    TMP DP  RH WIND       PRES   REMARKS
RICHMOND       FAIR      72  49  44 SE9       29.71F
CHESTERFIELD*  FAIR      74  50  42 S7        29.70F
PETERSBURG*    FAIR      76  45  33 S3        29.72F
HANOVER        FAIR      73  47  39 E7        29.71F
TAPPAHANNOCK*  FAIR      62  47  58 E10       29.75F
QUINTON*       FAIR      73  47  40 S6        29.72F
CHARLOTTSVILLE FAIR      72  46  39 S5        29.69F
GORDONSVILLE*  FAIR      72  46  39 S3        29.70S
ORANGE*        FAIR      66  43  42 CALM      29.71F
LOUISA*        FAIR      72  45  38 S3        29.74F
BUMPASS*       FAIR      70  43  38 E3        29.70F
FARMVILLE*     FAIR      78  46  31 S8        29.66F
CREWE*         FAIR      75  52  43 S6        29.68F
FORT PICKETT*  FAIR      76  49  39 S14       29.69F
CHASE CITY*    FAIR      79  51  37 S3        29.69F
CLARKSVILLE*   FAIR      79  46  31 SW13G20   29.69F
SOUTH HILL*    FAIR      76  54  44 S8        29.75F
LAWRENCEVILLE* FAIR      76  50  38 S7        29.70F
EMPORIA*       FAIR      75  52  43 SE7       29.73F
$$

VAZ088>098-190000-
SOUTHEAST VIRGINIA

CITY           SKY/WX    TMP DP  RH WIND       PRES   REMARKS
NORFOLK        FAIR      60  47  61 SE12G21   29.76F
VIRGINIA BEACH FAIR      53  46  77 SE8       29.77F
NORFOLK NAVAL  FAIR      60  46  59 SE10      29.77F
WEST POINT*    FAIR      59  45  60 E8        29.77F
SALUDA*        FAIR      55  47  76 E8        29.78F
NEWPORT NEWS   FAIR      59  48  67 E10       29.76F
LANGLEY AFB    FAIR      59  48  67 E8        29.77F
FORT EUSTIS    FAIR      63  48  57 E8        29.73F
WILLIAMSBURG*  FAIR      61  46  59 CALM      29.77S
HR EXEC AP*    FAIR      65  51  60 SE9       29.76F
FRANKLIN*      FAIR      76  50  40 S6        29.74F
US460-WAKEFLD  FAIR      76  51  41 S5        29.73F
$$

VAZ020-022-025-037-045-190000-
WEST CENTRAL AND SOUTHWEST VIRGINIA

CITY           SKY/WX    TMP DP  RH WIND       PRES   REMARKS
STAUNTON*      FAIR      69  45  41 SE6       29.70F
WAYNESBORO*    FAIR      70  45  40 S10G17    29.69F
HOT SPRINGS VA FAIR      64  39  39 S7        29.77S
LYNCHBURG      FAIR      77  46  33 S10       29.67F
DANVILLE       FAIR      79  46  31 SW9G20    29.69F
SOUTH BOSTON*  FAIR      80  44  28 S9        29.68F
MARTINSVILLE   FAIR      79  40  25 SW6G17    29.71F
ROANOKE        FAIR      80  46  30 S13G21    29.67F
BLACKSBURG     FAIR      75  46  35 S12G22    29.74S
DUBLIN*        FAIR      77  43  29 S16G23    29.73R
MARION*        FAIR      76  40  27 W18       29.77R
HILLSVILLE*    FAIR      73  40  30 S12G22    29.75S
RICHLANDS*     FAIR      73  43  34 SW6G22    29.77S
WISE*          FAIR      70  48  46 SW20G26   29.79R
ABINGDON*      FAIR      76  47  36 W18G26    29.77R
$$

MDZ021>025-VAZ099-100-190000-
SOUTHERN MARYLAND AND THE DELMARVA PENINSULA

CITY           SKY/WX    TMP DP  RH WIND       PRES   REMARKS
PATUXENT RIVER FAIR      55  43  63 SE7       29.78F
BAY BRIDGE APT FAIR      57  39  51 S6        29.79F
LEONARDTOWN    FAIR      54  37  54 E7        29.79F
DOVER          FAIR      51  43  75 E7        29.79F
GEORGETOWN     FAIR      59  38  45 SW6       29.80F
EASTON         CLEAR     59  34  38 CALM      29.82F
CAMBRIDGE      CLEAR     55  39  54 S6        29.79F
SALISBURY      FAIR      57  38  48 S3        29.80F
TANGIER        FAIR      54  45  71 SE9G17    29.79F
OCEAN CITY     FAIR      49  41  74 S8        29.83S
WALLOPS ISLAND FAIR      51  41  68 S8        29.83S
ACCOMACK*      FAIR      49  39  68 SE9       29.81F
$$

NCZ012>017-030>032-190000-
NORTH CENTRAL AND EASTERN NORTH CAROLINA

CITY           SKY/WX    TMP DP  RH WIND       PRES   REMARKS
ROANOKE RAPIDS FAIR      77  50  38 S13       29.72F
RALEIGH        FAIR      78  48  34 SW14      29.73F
ELIZABETH CITY FAIR      61  53  75 SE13      29.78F
AHOSKIE*       FAIR      77  49  37 S7        29.74F
EDENTON*       FAIR      64  55  75 E5        29.78F
CURRITUCK*     NOT AVBL
KILL DEVIL HLS FAIR      56  50  78 CALM      29.79F
MANTEO         FAIR      64  58  81 S10       29.80F
CAPE HATTERAS  FAIR      67  59  75 SW16G24   29.82F
TARBORO*       NOT AVBL
GOLDSBORO      FAIR      80  49  32 S7        29.76F
WASHINGTON     FAIR      79  47  32 SW9       29.77S
GREENVILLE     FAIR      81  48  32 SW12      29.80S
NEW BERN       FAIR      73  56  54 S12       29.80F
WILMINGTON     FAIR      72  52  49 SW14G23   29.84S
$$

VAZ048-190000-
ELSEWHERE

CITY           SKY/WX    TMP DP  RH WIND       PRES   REMARKS
HARRISBURG PA  FAIR      53  32  44 E6        29.76F
BALTIMORE      FAIR      59  37  44 CALM      29.77F
ANNAPOLIS      FAIR      56  40  55 S8        29.78F
ANDREWS AFB    FAIR      58  39  48 E9        29.76S
PHILADELPHIA   FAIR      54  29  38 SW6       29.79F
HENDERSON NC   FAIR      76  44  31 SW17      29.71F
GREENSBORO     FAIR      79  41  25 SW17G25   29.72F
ROCKY MOUNT    FAIR      78  48  34 S9        29.75F
$$

VAZ100-190000-
MARINE

STATION/POSITION TIME  TEMP    WIND        PRES    WAVE   SWELL
                       AIR SEA DIR/SP/G            HT/PER HT/PER
                 (UTC) (F)     (DEG/KT/KT) (MB)    (FT/S) (FT/S)
BRANDYWINE LGT   2248          140/ 12/ 13 1009.6F
CAPE MAY NJ      2248   48 51  130/  8/  9 1009.0F
LEWES DE         2242   54 49   80/  3/  3 1008.9F
15NM E FENWICK I 2250   46 46  190/ 16/ 17 1010.0F   3/ 4   2/ 8
OCEAN-CITY-INLET 2242   49 54  210/ 13/ 16 1010.4F
WACHAPREAGUE VA  2242   49 60  140/  8/ 11 1009.9F
THOMAS POINT MD  2300   51 51  190/  9/  9 1009.5F
GOOSES REEF MD   2300   52     170/ 12/ 14 1008.9
COVE POINT MD    2242   51     170/ 11/ 12 1009.4F
SOLOMONS ISLAND  2242   52 53  130/  9/ 11 1008.4F
BISHOPS HEAD MD  2242   54 57  150/  5/  6 1009.3F
PINEY POINT MD   2248          120/ 11/ 13   N/A
POTOMAC MD       2300   53 53  110/  8/ 10 1009.8    1/ 2
CAMBRIDGE MD     2242   57 55              1009.7F
LEWISETTA VA     2242   56 55  140/  9/ 11 1008.2F
RAPPAHANNOCK LGT 2248          110/ 15/ 17 1009.4F
YORK RVR RNG VA  2242   51     120/ 18/ 20 1008.7F
YORKTOWN VA      2242   53 56  100/ 11/ 13 1007.8F
DOMINION TERM VA 2242   62     110/ 10/ 11 1007.9F
KIPTOPEKE VA     2242      55  130/ 13/ 16   N/A
CAPE HENRY VA    2242   51     150/ 14/ 18   N/A
WILLOUBY STN VA  2242   60     130/ 10/ 12 1007.8F
S CRANEY ISL VA  2242   63     150/ 11/ 13 1007.6F
CAPE HENRY BUOY  2300      49                N/A     3/ 3
64NM E OF VA BCH 2250   50 51  100/ 10/ 12 1010.2F   3/10   3/10
DUCK PIER NC     2242   52 50  120/ 11/ 12 1008.6F
44100 DUCK FRF   2245      50                N/A     3/ 9   2/11
44056 DUCK FRF   2300      49                N/A     2/11   2/11
OREGON INLET NC  2248          170/ 10/ 13 1009.2F
HATTERAS NC      2242   66 61  220/ 14/ 21 1009.7F
DIAMOND SHLS NC  2300   67 65  210/ 17/ 21 1010.5
CAPE LOOKOUT NC  2300          220/ 15/ 21 1010.5F
$$



USA.gov is the U.S. government's official web portal to all federal, state and local government web resources and services.